GEESAT-3 04 (61014 NORAD) Tracking and Keplerian Element Data

This shows tracking and keplerian element data for the satellite.

Feedback or suggestion? Click here.




ElementValue
Catalog61014
NameGEESAT-3 04
Epoch Orbit562
Epoch Day286.87455664
Epoch Year2024
RAAN61.3227
Inclination50.0033
Eccentricity0.0100611
Argument of Perigee323.4682
Mean Anonmoly35.9443
Mean Motion15.33743975
Decay Rate0.00050087
L11 61014U 24159D 24286.87455664 .00050087 00000+0 12835-2 0 9990
L22 61014 50.0033 61.3227 0100611 323.4682 35.9443 15.33743975 5621



Live tracking and technical data element details for GEESAT-3 04 (NORAD 61014). GEESAT-3 04 can be tracked NOW for your location showing map with azimuth and elevation plus other details from your city location.







IsCatalogInMostPopularTable: catalog: 61014, numindb: 7
Update: records affected: 1



GetName: 61014 GEESAT-3 04

Hit Count: updated at: Tue, 03 Dec 2024 03:29:06 GMT